Retour au catalogue

STARLINK-30370

ActifCommunicationsVLEO
NORAD 57751·PAYLOAD·🇺🇸 United States

Lancé Sep 1, 2023 depuis Cape Canaveral Space Force Station

Loading…

Prochains Passages (prochaines 24 heures)

TLE

FraisSource: CelesTrak SupGP

Époque: Sep 15, 2026, 02:18 UTC

1 57751C 23131V   26258.09631944 -.00632030  00000+0 -19517-1 0  2581
2 57751  42.9996 161.5923 0001118 257.0892  41.4108 15.33037811    18

Suivez STARLINK-30370 en temps réel avec AllMySat

Download on the App Store